Simultaneous Nadir Overpasses (SNOs) Predictions

Prediction of SNOs between AQUA and METOP-A Satellite Orbit:

Table of predicted SNOs for the next 14.0 days since TLE Epoch: 4/6/2018
Index Date (AQUA) Time (AQUA) Lat,Lon (AQUA) SZA (AQUA ) Date (METOP-A) Time (METOP-A) Lat,Lon (METOP-A) SZA (METOP-A ) Distance(km) Time Diff (sec)
1 04/08/2018 23:09:00 -73.84, 7.15 113.62 04/08/2018 23:07:51 -73.79, 5.15 113.59 62.18 69
2 04/08/2018 23:58:36 74.30, 173.74 66.86 04/08/2018 23:58:20 74.30, 173.74 66.86 0.04 16
3 04/09/2018 00:48:03 -74.35, -18.75 113.10 04/09/2018 00:49:01 -74.35, -18.80 113.11 1.76 58
4 04/11/2018 18:43:17 -73.91, 73.43 114.59 04/11/2018 18:42:08 -73.85, 71.71 114.58 53.46 69
5 04/11/2018 19:32:52 74.32,-119.86 65.83 04/11/2018 19:32:38 74.31,-119.82 65.83 1.13 14
6 04/11/2018 20:22:19 -74.37, 47.65 114.13 04/11/2018 20:23:19 -74.37, 47.64 114.14 0.52 60
7 04/14/2018 14:17:34 -74.04, 139.58 115.48 04/14/2018 14:16:23 -73.96, 138.38 115.50 37.44 71
8 04/14/2018 15:07:07 74.34, -53.48 64.83 04/14/2018 15:06:55 74.32, -53.39 64.81 3.04 12
9 04/14/2018 15:56:34 -74.40, 114.03 115.13 04/14/2018 15:57:36 -74.38, 114.08 115.15 2.28 62
10 04/17/2018 09:51:51 -74.12,-154.18 116.40 04/17/2018 09:50:39 -74.08,-154.94 116.41 23.83 72
11 04/17/2018 10:41:22 74.31, 13.01 63.80 04/17/2018 10:41:13 74.33, 13.03 63.82 1.93 9
12 04/17/2018 11:30:49 -74.37,-179.49 116.15 04/17/2018 11:31:54 -74.39,-179.48 116.14 2.04 65
13 04/20/2018 05:26:08 -74.21, -87.95 117.29 04/20/2018 05:24:55 -74.18, -88.27 117.29 10.13 73
14 04/20/2018 06:15:38 74.35, 79.36 62.86 04/20/2018 06:15:31 74.34, 79.46 62.84 3.21 7




NCC Satellite Simultaneous Nadir Overpasses (SNOs) Prediction Service
